Flag for Germany Weather past 2 weeks in Langenhagen, Lower Saxony, Germany

Now
61 °F

Broken clouds.


Feels Like: 61 °F
Forecast: 53 / 64 °F
Wind: 15 mph from Southeast

Location: Hannover

Current Time: May 3, 2015 at 12:12:01 PM

Latest Report: May 3, 2015 at 11:50 AM


Visibility: N/A

Pressure: 29.71 "Hg

Humidity: 55%

Dew point: 45 °F

Location of LangenhagenLocation

Historic Weather in Langenhagen — Graph

°F

Langenhagen temperature yesterday

Maximum temperature yesterday: 55 °F (at 2:20 PM)
Minimum temperature yesterday: 36 °F (at 2:20 AM)
Average temperature yesterday: 47 °F

Past Weeks' High & Low Weather Summary

 TemperatureHumidityPressure
High66 °F (Apr 20, 3:20 PM)100% (Apr 19, 3:50 AM)30.42 "Hg (Apr 19, 3:50 AM)
Low30 °F (Apr 28, 5:20 AM)32% (Apr 20, 4:20 PM)29.62 "Hg (Apr 27, 3:20 AM)
Average49 °F72%30.00 "Hg
* Reported Apr 18 10:20 AM — May 3 10:50 AM, Langenhagen, Weather by CustomWeather, © 2015

Note: Actual official high and low records may vary slightly from our data, if they occured in-between our weather recording intervals... More about our weather records

Advertising

Langenhagen weather history for previous 24 hours

 ConditionsComfort  
Time TempWeatherWind HumidityBarometerVisibility
10:50 AM
Sun, May 3
57 °FPassing clouds.10 mph59%29.74 "HgN/A
10:20 AM55 °FPassing clouds.9 mph59%29.74 "HgN/A
9:50 AM54 °FSunny.10 mph58%29.77 "Hg10 mi
9:20 AM52 °FPassing clouds.8 mph62%29.77 "HgN/A
8:50 AM50 °FSunny.9 mph67%29.77 "Hg10 mi
8:20 AM46 °FSunny.8 mph71%29.80 "Hg10 mi
7:50 AM45 °FSunny.7 mph71%29.80 "Hg10 mi
7:20 AM43 °FSunny.7 mph71%29.80 "Hg10 mi
6:50 AM39 °FSunny.7 mph81%29.80 "Hg10 mi
6:20 AM37 °FClear.6 mph81%29.80 "Hg10 mi
5:50 AM37 °FPassing clouds.5 mph81%29.80 "HgN/A
5:20 AM36 °FClear.6 mph87%29.80 "Hg10 mi
4:20 AM37 °FClear.7 mph81%29.83 "Hg10 mi
3:50 AM37 °FClear.8 mph81%29.83 "Hg10 mi
3:20 AM39 °FClear.7 mph81%29.83 "Hg10 mi
2:50 AM39 °FClear.7 mph81%29.83 "Hg10 mi
2:20 AM39 °FClear.7 mph81%29.83 "Hg10 mi
1:50 AM39 °FClear.6 mph75%29.86 "Hg10 mi
1:20 AM41 °FClear.6 mph70%29.86 "Hg10 mi
12:50 AM41 °FClear.6 mph76%29.86 "Hg10 mi
12:20 AM43 °FClear.5 mph71%29.89 "Hg10 mi
11:50 PM
Sat, May 2
45 °FClear.5 mph66%29.89 "Hg10 mi
10:50 PM45 °FClear.3 mph66%29.89 "Hg10 mi
10:20 PM43 °FClear.6 mph71%29.89 "Hg10 mi
9:50 PM46 °FClear.3 mph62%29.89 "Hg10 mi
9:20 PM48 °FSunny.5 mph58%29.89 "Hg10 mi
8:50 PM50 °FSunny.3 mph50%29.89 "Hg10 mi
8:20 PM52 °FSunny.5 mph50%29.89 "Hg10 mi
7:50 PM54 °FSunny.3 mph44%29.89 "Hg10 mi
7:20 PM55 °FSunny.6 mph41%29.89 "Hg10 mi
6:50 PM55 °FSunny.6 mph44%29.86 "Hg10 mi
6:20 PM55 °FSunny.3 mph41%29.89 "Hg10 mi
5:50 PM55 °FPassing clouds.8 mph44%29.89 "HgN/A
5:20 PM55 °FPassing clouds.7 mph41%29.89 "HgN/A
4:50 PM55 °FPassing clouds.7 mph41%29.89 "HgN/A
4:20 PM55 °FPassing clouds.8 mph41%29.89 "HgN/A
3:50 PM55 °FPassing clouds.9 mph44%29.89 "HgN/A
3:20 PM55 °FPassing clouds.9 mph44%29.92 "HgN/A
2:50 PM55 °FPassing clouds.7 mph47%29.92 "HgN/A
2:20 PM55 °FScattered clouds.6 mph47%29.92 "HgN/A
1:50 PM54 °FScattered clouds.7 mph54%29.92 "HgN/A
1:20 PM54 °FScattered clouds.9 mph47%29.92 "HgN/A
12:50 PM54 °FScattered clouds.8 mph51%29.92 "HgN/A
12:20 PM50 °FScattered clouds.9 mph54%29.92 "HgN/A
Weather by CustomWeather, © 2015

See weather overviewHow to use our weather pages